Wind_Speed
42 41 40 40 39 37 36 36 35 35 35 35 35 36 36 35 34 33 32 31 30 29 27 25 24 23 23 23 23 24 24 22 23 23 22 21 20 19 18 17 17 18
42 41 40 39 38 38 37 38 38 37 37 36 36 36 35 34 34 33 33 32 31 30 28 26 25 24 24 24 24 25 24 24 24 24 23 22 21 21 20 19 18 19
43 42 41 39 39 39 39 39 38 38 38 37 36 35 35 34 33 33 32 32 31 30 29 27 26 25 25 25 26 26 25 25 25 25 25 24 23 22 22 20 20 20
43 43 42 41 41 41 39 38 38 38 38 37 36 36 35 34 33 32 32 32 31 31 30 29 27 26 26 26 27 27 26 26 26 26 26 25 24 24 23 22 21 21
44 44 43 42 42 41 39 38 38 39 38 38 37 36 35 34 33 33 32 32 32 31 31 30 28 28 28 28 28 28 28 27 27 27 27 27 26 25 24 23 22 21
42 43 43 42 42 41 39 39 40 40 39 38 37 36 35 35 34 33 33 33 32 32 32 32 30 29 29 29 30 30 30 29 29 28 28 28 27 26 25 24 23 22
41 41 42 41 41 41 40 40 40 40 39 38 37 36 36 35 35 34 34 34 33 33 33 33 32 31 31 31 31 32 32 32 31 30 29 29 28 27 27 26 25 23
40 40 41 41 41 41 40 40 39 39 38 37 36 36 36 36 36 35 35 34 34 34 34 34 34 33 33 33 33 33 33 33 33 32 32 31 30 30 29 28 27 26
40 40 41 41 41 41 41 41 39 38 37 36 36 36 36 36 37 36 36 35 35 35 35 35 35 35 35 35 35 34 34 34 34 34 34 33 32 32 30 29 28 27
40 40 40 41 42 42 41 41 39 37 36 36 35 35 35 36 36 36 36 36 36 36 36 35 36 36 37 37 36 35 35 35 35 35 35 34 34 33 31 30 30 29
40 39 40 41 42 41 41 39 38 36 35 35 35 35 35 35 35 36 36 37 37 37 37 37 37 37 38 38 37 36 35 35 35 35 35 35 34 33 32 31 31 30
40 41 41 41 41 41 39 38 37 37 36 35 35 35 35 35 35 36 37 38 39 38 38 38 38 38 38 38 38 37 36 36 35 35 34 34 34 33 33 32 32 31
42 43 43 42 41 41 40 39 38 38 38 36 36 35 36 36 36 37 38 39 40 40 40 39 38 38 38 38 38 37 36 36 35 34 33 33 34 34 33 33 32 32
44 44 43 42 41 41 41 40 40 40 39 37 36 36 37 38 38 38 38 39 40 41 41 39 38 38 39 38 38 38 37 35 34 33 33 33 34 34 33 33 33 32
44 42 41 41 40 40 40 40 40 39 38 37 37 38 38 38 38 38 38 39 40 40 40 39 39 39 40 40 39 38 37 35 34 33 33 34 34 33 33 33 33 33
41 39 39 39 39 40 40 40 39 38 37 38 39 39 38 38 38 38 39 41 40 39 38 38 39 41 42 41 41 40 38 36 34 34 34 34 33 33 33 34 34 34
39 38 38 39 40 40 40 39 39 38 38 39 39 39 38 37 38 39 41 41 40 39 39 39 40 42 42 42 41 40 38 37 35 35 35 34 34 33 34 34 34 34
39 38 38 39 40 40 39 39 39 39 39 39 39 39 38 38 40 41 42 41 39 39 39 40 41 43 42 42 41 41 39 38 36 35 35 35 35 35 34 34 34 34
39 38 39 40 40 40 39 38 39 39 40 39 39 39 39 40 41 42 41 40 39 39 40 40 41 42 42 42 41 40 40 39 37 36 36 35 36 36 35 35 34 33
38 39 40 40 39 39 38 38 39 40 40 40 39 39 39 40 41 41 41 41 41 40 39 39 41 42 42 41 41 40 40 39 38 37 36 36 36 36 36 35 35 34
38 39 39 38 38 38 38 39 39 40 40 39 38 39 40 41 41 40 41 41 41 40 38 38 41 42 41 40 40 40 39 39 38 37 36 36 36 37 36 36 35 33
38 38 37 36 36 37 37 38 39 40 40 39 38 39 39 39 39 39 40 40 40 39 38 39 40 40 40 40 40 39 38 38 38 37 36 36 37 37 36 35 34 32
39 38 36 36 36 37 38 39 40 40 39 39 38 37 37 38 38 38 39 39 39 39 39 39 39 39 40 40 39 39 38 38 38 38 37 37 38 37 35 34 33 32
40 39 38 37 38 39 40 40 40 40 40 40 39 37 38 39 38 37 38 38 39 40 41 40 38 39 40 40 39 39 38 38 39 38 37 37 36 34 33 33 32 32
38 38 38 38 39 40 40 40 39 39 38 38 38 38 38 37 36 36 36 37 38 40 41 40 38 38 39 40 39 39 39 39 39 37 35 35 33 31 30 31 32 30
37 38 40 40 40 40 39 38 37 36 35 36 37 36 35 34 35 36 35 36 37 38 38 39 39 38 38 39 39 39 39 39 38 36 35 34 31 30 29 29 29 28
Wind_Direction
212 212 213 214 215 216 216 217 219 220 222 223 224 227 231 234 236 234 234 234 234 235 235 236 236 235 234 232 229 228 230 232 231 231 235 239 241 240 242 246 247 247
212 212 213 214 214 216 217 218 220 221 224 226 227 229 232 234 235 234 233 232 233 234 235 236 236 234 232 230 228 229 231 234 234 233 236 239 240 240 242 246 247 247
212 212 212 213 214 216 217 218 220 222 224 227 228 230 231 232 233 232 232 232 233 234 234 235 235 233 232 231 229 229 232 235 235 234 236 239 241 241 243 246 248 247
212 212 212 214 215 217 217 217 218 221 223 225 228 230 230 230 230 230 231 232 232 234 234 234 234 232 232 231 229 229 231 235 237 236 236 239 241 242 244 247 249 248
212 212 213 214 215 217 217 216 218 220 221 223 226 228 228 228 228 228 230 231 231 232 233 233 233 232 233 231 229 228 230 234 237 237 238 240 241 242 243 246 249 249
212 213 213 214 215 216 216 217 218 220 221 222 223 224 225 226 226 227 228 229 230 230 230 231 231 231 232 232 230 230 230 233 237 238 239 240 241 242 243 245 247 248
212 212 212 214 215 216 217 218 219 220 221 221 221 221 222 223 225 226 228 229 229 229 229 229 230 230 232 232 231 232 232 233 236 238 239 241 241 241 241 243 244 245
211 212 212 213 214 216 217 218 219 219 220 220 220 220 221 222 224 225 227 227 228 228 229 229 229 230 231 232 232 233 233 234 235 237 239 240 241 241 241 242 243 243
211 211 211 212 213 215 217 218 219 219 219 219 219 220 221 222 223 224 225 226 227 227 227 228 229 230 231 232 232 233 233 234 235 236 238 239 240 241 242 242 241 243
210 210 210 211 213 215 216 217 218 218 219 219 218 219 220 220 222 222 224 225 225 225 226 226 227 229 231 231 232 233 234 235 235 236 237 238 240 242 242 241 241 243
210 210 210 211 212 214 216 217 217 217 218 218 218 218 219 219 219 219 221 222 223 225 225 225 227 229 229 230 231 233 234 235 236 237 238 238 240 242 242 241 241 244
209 210 210 211 212 213 214 215 216 216 217 218 217 217 218 219 219 218 219 221 224 225 226 226 227 228 228 228 230 232 234 235 236 237 238 239 240 241 241 241 242 244
210 211 211 210 211 212 213 214 215 216 216 216 217 217 217 219 219 219 220 222 225 226 227 227 227 226 227 227 229 231 232 233 233 234 236 238 240 241 241 243 244 245
211 211 210 210 210 211 212 213 213 214 215 215 215 216 217 218 219 220 221 223 225 226 227 227 225 225 226 226 227 229 230 231 231 231 233 236 239 241 242 243 245 246
211 211 210 210 210 210 211 211 212 213 213 213 214 215 216 218 219 221 222 223 225 225 225 225 224 225 226 225 226 226 227 228 229 230 233 235 237 239 241 243 244 246
210 209 209 209 209 210 210 210 211 211 211 212 213 214 215 216 217 220 222 223 224 223 223 222 223 225 226 226 226 226 227 226 227 229 232 233 234 236 238 242 244 245
208 208 207 207 208 209 209 210 209 210 210 212 212 213 214 214 216 218 221 223 223 222 222 221 223 225 226 226 227 227 227 226 226 229 230 231 233 233 236 240 242 244
207 206 206 207 208 208 208 208 208 209 210 211 211 212 212 212 215 218 220 221 222 222 222 222 224 226 226 226 226 226 226 226 226 228 229 230 232 233 236 239 240 243
205 204 205 206 206 206 207 207 207 208 209 210 210 211 211 212 215 217 219 220 220 221 222 222 225 227 226 226 225 225 226 225 225 226 228 229 232 234 236 237 238 240
204 204 205 206 205 205 205 205 207 208 209 210 210 210 210 213 215 216 218 219 220 221 222 223 225 227 226 225 224 225 225 224 224 225 227 229 232 234 236 237 238 238
203 205 205 205 204 203 204 205 207 209 209 209 210 210 211 213 215 216 217 218 220 220 221 223 225 226 226 224 223 224 224 223 222 223 225 228 232 234 236 237 237 237
204 204 204 204 203 202 204 205 207 209 209 209 210 211 212 214 215 217 218 218 219 219 220 223 225 226 225 224 223 223 222 220 220 221 223 226 230 233 234 235 235 235
204 203 203 202 201 202 204 206 208 209 209 209 210 211 212 214 216 217 219 219 219 219 220 222 224 224 224 223 222 221 218 216 218 219 221 224 229 231 231 232 233 235
203 202 202 202 202 203 205 206 207 208 209 209 209 210 212 214 215 217 219 220 219 219 220 221 222 223 223 222 220 219 216 215 216 217 218 222 226 228 228 230 233 235
202 202 203 203 204 206 206 207 208 208 209 210 211 212 213 214 215 217 219 220 221 222 222 221 221 222 222 220 218 218 216 215 215 214 215 219 222 223 225 228 231 233
203 203 205 205 206 207 207 207 208 208 209 210 212 214 215 215 215 217 219 221 222 223 223 222 221 222 221 219 217 217 215 214 212 211 213 217 217 218 220 224 226 228
Height
778 781 783 786 788 791 793 795 798 800 802 804 805 807 808 810 812 814 817 819 821 822 824 826 827 828 830 831 833 835 836 838 839 840 841 842 843 844 845 846 847 848
775 778 780 783 785 788 790 792 794 796 798 800 802 804 806 808 810 812 814 817 819 820 822 824 825 827 828 830 831 833 834 836 837 838 839 840 841 842 843 845 845 846
771 774 777 779 781 783 786 788 790 792 794 797 799 802 804 806 808 809 812 814 816 819 820 822 824 825 826 828 830 831 832 834 835 836 838 838 839 841 842 843 844 845
767 770 772 775 777 780 782 785 787 789 791 793 796 799 801 803 805 807 810 812 814 816 818 820 822 823 824 826 828 829 830 831 833 834 835 836 838 839 840 841 842 843
763 766 768 771 774 776 779 781 783 785 788 790 792 795 798 800 803 805 807 809 811 814 816 818 820 821 822 824 825 827 828 829 831 832 833 834 835 837 838 839 840 841
760 763 765 768 771 773 775 777 779 782 784 786 789 792 794 797 800 802 805 807 809 811 813 815 817 819 820 821 822 824 825 827 828 830 831 832 833 835 836 837 838 839
756 759 762 765 768 770 772 773 776 778 781 784 786 789 791 794 797 799 802 804 806 808 810 812 814 815 817 818 819 821 822 824 826 827 829 829 831 832 833 834 835 836
753 756 759 762 764 766 768 770 773 775 778 781 784 786 788 790 793 796 799 801 803 805 806 808 810 812 814 814 816 817 819 821 823 825 826 827 828 829 830 832 833 834
749 752 755 758 760 762 764 767 769 772 776 778 781 783 785 787 790 792 795 797 800 801 803 805 807 808 810 811 812 814 816 818 820 821 823 824 825 826 828 830 831 832
745 748 751 753 755 758 760 763 767 770 773 775 778 781 783 785 787 789 792 794 796 798 799 801 802 804 805 807 808 810 812 814 816 818 819 821 822 824 825 827 828 829
740 743 746 748 750 753 757 761 764 767 770 773 775 778 780 782 784 785 788 790 792 793 795 797 798 800 801 803 805 807 809 811 813 815 816 818 820 821 823 825 826 827
735 738 740 742 746 750 754 758 761 764 766 769 772 775 777 779 780 782 783 785 787 789 790 792 794 796 797 799 801 803 805 808 809 812 814 815 817 818 820 821 823 824
729 731 734 738 742 745 749 753 756 759 762 764 768 770 773 775 776 778 779 781 782 784 786 787 789 792 793 795 797 799 801 804 806 808 810 812 814 815 817 818 819 821
722 725 729 733 737 741 744 747 750 754 757 760 763 765 768 770 772 774 775 777 778 779 781 783 785 787 789 791 793 795 797 800 802 805 807 808 810 811 813 815 816 817
717 722 726 730 734 737 740 743 746 749 752 756 758 760 762 765 767 770 771 772 773 774 777 779 781 782 784 786 788 791 793 796 798 801 803 804 806 808 810 811 812 813
714 718 722 726 729 732 735 738 742 745 748 751 752 755 757 760 763 765 766 767 768 770 772 774 775 777 778 781 784 786 789 792 794 796 798 800 802 804 806 807 808 809
710 714 717 721 724 727 731 734 738 741 743 745 747 750 752 755 758 759 760 761 763 765 767 769 770 771 773 776 779 782 785 787 789 792 794 796 798 799 801 802 804 805
704 709 712 715 718 722 726 730 733 736 737 740 742 745 747 750 751 752 754 756 759 761 762 763 765 767 769 772 775 778 781 783 785 787 789 791 793 795 797 798 800 801
700 703 706 710 713 717 721 725 728 730 732 734 737 739 742 743 744 746 749 752 754 755 757 759 760 762 764 767 770 773 776 779 781 783 785 787 789 790 792 794 795 797
695 698 700 704 708 712 717 719 722 724 726 729 732 734 737 737 739 742 744 746 748 750 752 754 756 757 760 762 766 769 772 775 777 779 781 783 784 786 788 789 791 793
690 693 696 700 704 708 711 714 716 719 721 724 726 728 730 732 735 737 739 741 743 745 748 750 751 753 755 758 761 764 768 771 773 775 777 778 780 781 783 785 786 788
685 689 693 696 701 704 706 709 711 713 716 719 721 723 725 728 731 732 734 736 739 741 743 744 746 748 751 753 757 760 763 767 769 771 772 774 775 777 778 781 783 785
680 684 688 692 696 698 700 703 705 708 711 714 716 719 721 723 725 727 730 732 734 736 738 739 741 743 746 748 752 756 759 762 764 766 768 769 771 772 775 777 779 781
674 679 683 687 689 691 693 696 699 702 705 708 711 714 716 718 720 723 725 727 729 730 731 734 736 738 740 744 747 751 754 757 759 761 764 765 767 769 772 774 776 777
671 675 679 682 684 685 688 691 694 698 701 705 707 709 710 713 716 719 721 722 724 726 727 730 732 733 736 739 743 746 750 752 755 757 759 762 764 767 769 770 772 774
668 671 673 675 678 680 684 688 691 695 699 702 704 706 708 711 712 714 716 718 720 722 724 726 728 729 731 734 738 742 745 748 751 753 755 758 760 763 765 767 769 772